Regional Weather Roundup
Issued by NWS

Home | Current Version | Previous Version | Text Only | Print | Product List | Glossary On
Versions: 1 2 3 4 5 6 7 8 9 10 11 12 13 14 15 16 17 18 19 20 21 22 23 24 25 26 27 28 29 30 31 32 33 34 35 36 37 38 39 40 41 42 43 44 45 46 47 48 49 50
000
ASUS43 KDTX 180010
RWRMI
MICHIGAN HOURLY REGIONAL WEATHER ROUNDUP
NATIONAL WEATHER SERVICE DETROIT/PONTIAC MI
800 PM EDT THU APR 17 2014

NOTE: "FAIR" INDICATES FEW OR NO CLOUDS BELOW 12,000 FEET WITH NO
SIGNIFICANT WEATHER AND/OR OBSTRUCTION TO VISIBILITY.

MIZ047>049-052>055-059>063-066>070-074>076-081>083-180100-
SOUTHEAST LOWER MICHIGAN

CITY           SKY/WX    TMP DP  RH WIND       PRES   REMARKS
ADRIAN         CLEAR     60  32  34 SW9       30.22S
6HR MIN TEMP:  60; 6HR MAX TEMP:  67;

ALMA           MOCLDY    57  34  42 W9G16     30.19R
ANN ARBOR      PTCLDY    62  29  28 SW7       30.21S
BAD AXE        PTCLDY    55  36  49 S13       30.20F
6HR MIN TEMP:  52; 6HR MAX TEMP:  58;

DETROIT CITY   PTCLDY    59  35  40 SE10      30.23S
6HR MIN TEMP:  59; 6HR MAX TEMP:  65;

DETROIT        MOCLDY    59  36  42 SE6       30.23S
6HR MIN TEMP:  57; 6HR MAX TEMP:  63;

FLINT          MOCLDY    62  30  29 S8        30.19S
6HR MIN TEMP:  60; 6HR MAX TEMP:  66;

GROSSE ILE     CLEAR     54  37  54 SE9       30.22S
HILLSDALE      PTCLDY    61  31  31 SW5       30.22R
HOWELL         MOCLDY    60  29  31 SW7       30.20S
6HR MIN TEMP:  58; 6HR MAX TEMP:  64;


CITY           SKY/WX    TMP DP  RH WIND       PRES   REMARKS
JACKSON        PTCLDY    60  31  33 SW6       30.21S
6HR MIN TEMP:  60; 6HR MAX TEMP:  65;

LAMBERTVILLE   CLEAR     63  30  29 SW7       30.23S
LANSING        CLOUDY    61  34  36 SW12      30.19S
6HR MIN TEMP:  60; 6HR MAX TEMP:  66;

LAPEER         NOT AVBL
MASON          MOCLDY    60  33  36 SW3       30.19S
MONROE         CLEAR     61  34  36 S9        30.21F
MT. CLEMENS    MOCLDY    51  35  52 SE13      30.22S
6HR MIN TEMP:  51; 6HR MAX TEMP:  59;

PONTIAC        MOCLDY    60  30  32 S7        30.20F
6HR MIN TEMP:  56; 6HR MAX TEMP:  63;

PORT HOPE        N/A     53  36  52 SE7       30.19F
6HR MIN TEMP:  44; 6HR MAX TEMP:  54;

PORT HURON     MOCLDY    54  36  50 SE7       30.24F
TRI CITIES     MOCLDY    63  35  35 SW12      30.18R
6HR MIN TEMP:  57; 6HR MAX TEMP:  65;

YPSILANTI      CLEAR     64  29  26 SW10      30.22S
6HR MIN TEMP:  61; 6HR MAX TEMP:  69;

$$
MIZ043>046-050>051-056>058-064>065-071>073-077>080-180100-
SOUTHWEST LOWER MICHIGAN

CITY           SKY/WX    TMP DP  RH WIND       PRES   REMARKS
BATTLE CREEK   MOCLDY    60  36  40 W8        30.21R
6HR MIN TEMP:  60; 6HR MAX TEMP:  65;

BENTON HARBOR  CLOUDY    54  36  50 CALM      30.21S
6HR MIN TEMP:  54; 6HR MAX TEMP:  60;

BIG RAPIDS     MOCLDY    52  36  55 W8        30.19S
6HR MIN TEMP:  52; 6HR MAX TEMP:  59;

COLDWATER      PTCLDY    58  32  37 SW7       30.21S
6HR MIN TEMP:  58; 6HR MAX TEMP:  63;

HOLLAND        MOCLDY    51  35  54 W5        30.22S
6HR MIN TEMP:  51; 6HR MAX TEMP:  59;

GRAND RAPIDS   CLOUDY    56  37  49 W10       30.21R
6HR MIN TEMP:  56; 6HR MAX TEMP:  65;

KALAMAZOO      MOCLDY    59  36  42 W8        30.21R
6HR MIN TEMP:  59; 6HR MAX TEMP:  67;

MARSHALL       MOCLDY    59  34  38 SW6       30.20S
MUSKEGON       MOCLDY    48  34  58 W6        30.22S
6HR MIN TEMP:  47; 6HR MAX TEMP:  56;

$$
MIZ016>042-180100-
NORTHERN LOWER MICHIGAN

CITY           SKY/WX    TMP DP  RH WIND       PRES   REMARKS
ALPENA         MOCLDY    42  32  67 E8        30.20F
6HR MIN TEMP:  42; 6HR MAX TEMP:  49;

BEAVER ISLAND  MOCLDY    39  31  73 SW3       30.22S
6HR MIN TEMP:  39; 6HR MAX TEMP:  44;

BELLAIRE       MOCLDY    46  32  57 NW3       30.21S
6HR MIN TEMP:  46; 6HR MAX TEMP:  57;

CADILLAC       MOCLDY    49  36  61 W10G16    30.18S
CHARLEVOIX     MOCLDY    40  32  73 W7        30.25S
6HR MIN TEMP:  40; 6HR MAX TEMP:  51;

FRANKFORT      CLOUDY    41  34  74 CALM      30.21S
GAYLORD        MOCLDY    45  26  47 VRB5      30.19R
6HR MIN TEMP:  45; 6HR MAX TEMP:  54;

GRAYLING       MOCLDY    48  28  45 NW14      30.20R
6HR MIN TEMP:  48; 6HR MAX TEMP:  58;

HARBOR SPRINGS MOCLDY    37  31  77 CALM      30.22R
HOUGHTON LAKE  MOCLDY    50  33  52 W8        30.18R
6HR MIN TEMP:  49; 6HR MAX TEMP:  59;

MANISTEE       CLOUDY    46  34  61 CALM      30.22S
OSCODA         MOCLDY    45  34  66 SE5       30.18F
PELLSTON       MOCLDY    44  32  62 N3        30.22R
6HR MIN TEMP:  44; 6HR MAX TEMP:  50;

TRAVERSE CITY  CLOUDY    49  34  56 W8        30.19S
6HR MIN TEMP:  47; 6HR MAX TEMP:  58;

$$
MIZ007>008-015-180100-
EASTERN UPPER MICHIGAN

CITY           SKY/WX    TMP DP  RH WIND       PRES   REMARKS
KINROSS        CLOUDY    37  30  75 SE13      30.22F
6HR MIN TEMP:  36; 6HR MAX TEMP:  37;

MACKINAC ISLAN CLOUDY    35  31  87 E7        30.22R
6HR MIN TEMP:  33; 6HR MAX TEMP:  35;

NEWBERRY       CLOUDY    35  29  80 SE8       30.20S
S. S. MARIE    CLOUDY    38  26  62 E8        30.22F
6HR MIN TEMP:  37; 6HR MAX TEMP:  38;

$$
MIZ004>006-011>014-085-180100-
CENTRAL UPPER MICHIGAN

CITY           SKY/WX    TMP DP  RH WIND       PRES   REMARKS
MANISTIQUE     CLEAR     35  31  86 SE3       30.21R
ESCANABA       CLOUDY    39  30  70 NW3       30.22S
6HR MIN TEMP:  34; 6HR MAX TEMP:  41;

MENOMINEE      CLOUDY    45  34  65 NW3       30.22R
6HR MIN TEMP:  39; 6HR MAX TEMP:  46;

SAWYER-GWINN   CLOUDY    36  32  87 SW6       30.29R
$$
MIZ001>003-009>011-084-180100-
WESTERN UPPER MICHIGAN

CITY           SKY/WX    TMP DP  RH WIND       PRES   REMARKS
IRON MOUNTAIN  CLOUDY    37  32  82 W3        30.20R
6HR MIN TEMP:  35; 6HR MAX TEMP:  40;

HOUGHTON       CLOUDY    32  29  88 W12       30.19S FOG
6HR MIN TEMP:  31; 6HR MAX TEMP:  33; 6HR PCP: TRACE;

COPPER HARBOR    N/A     34  31  88 CALM      30.20S
6HR MIN TEMP:  33; 6HR MAX TEMP:  34; 6HR PCP:  0.05;

IRONWOOD       CLOUDY    34  27  75 NW8       30.21F
6HR MIN TEMP:  32; 6HR MAX TEMP:  34;

$$

ABBREVIATIONS USED IN REMARKS
   TC - TEMPERATURE IN CELSIUS
  WCI - WIND CHILL INDEX
   HX - HEAT INDEX
  VSB - VISIBILITY




USA.gov is the U.S. government's official web portal to all federal, state and local government web resources and services.